Location: Unspecified
(0.0000°N, 0.0000°E)
Time: 07:09:14
(UTC+00:00)

DOVE 4 - Visible Passes

Search period start: 17 January 2018 00:00
Search period end: 27 January 2018 00:00
Orbit: 588 x 804 km, 97.7° (Epoch: 16 January)

Date Brightness Start Highest point End Pass type
(mag) Time Alt. Az. Time Alt. Az. Time Alt. Az.
17 Jan ? 04:28:33 14° NNE 04:32:29 86° E 04:37:25 10° S visible
18 Jan ? 03:33:13 10° ENE 03:36:00 16° ESE 03:38:51 10° SE visible
18 Jan ? 05:09:55 12° NNW 05:13:19 27° W 05:17:24 10° SW visible
19 Jan ? 04:12:31 12° NNE 04:16:40 53° ESE 04:21:30 10° S visible
20 Jan ? 04:53:52 15° NNW 04:57:27 43° W 05:02:09 10° SSW visible
21 Jan ? 03:56:35 10° NE 04:00:51 34° ESE 04:05:22 10° SSE visible
21 Jan ? 05:36:18 10° NW 05:38:19 13° W 05:40:24 10° WSW visible
22 Jan ? 04:37:48 16° N 04:41:36 70° WNW 04:46:38 10° SSW visible
23 Jan ? 03:41:22 10° NE 03:45:04 22° ESE 03:48:55 10° SSE visible
23 Jan ? 05:19:08 11° NNW 05:22:27 21° W 05:26:08 10° SW visible
24 Jan ? 04:21:41 14° NNE 04:25:46 74° ESE 04:30:53 10° S visible
25 Jan ? 03:26:41 10° ENE 03:29:17 14° ESE 03:31:57 10° SE visible
25 Jan ? 05:03:01 14° NNW 05:06:35 32° W 05:11:07 10° SW visible
26 Jan ? 04:05:35 12° NNE 04:09:58 47° ESE 04:14:54 10° S visible
